OOV-CUBE (TUBSAT-30)

Last updated on Sun Jun 21 2026 00:03:20 GMT+0000 (Coordinated Universal Time)

1 60240U 24128F 26171.44894970 .00001277 00000+0 10887-3 0 9994 2 60240 61.9929 214.1994 0044227 134.4761 225.9960 15.02783719106604
UTC large
Height (km)
Speed (km/s)
/
Latitude / Longitude
Inclination (degrees)
Orbital Period (minutes)
Azimuth
Elevation
Range (km)
Doppler Factor

Next 0 passes for location: London (51.5072 / 0.1276)

No passes found over London.
OOV-CUBE (TUBSAT-30)